Weather History for Hillsboro, TX

Change the Weather History Date:

Thursday, November 1, 2012

  Actual Average (KACT) Record (KACT)
Temperature  
Mean Temperature 69 °F 63 °F  
Max Temperature 87 °F 74 °F 91 °F (1955)
Min Temperature 51 °F 52 °F 31 °F (1991)
Degree Days  
Heating Degree Days 0 5  
Month to date heating degree days 5  
Since 1 July heating degree days 72  
Cooling Degree Days 4 3  
Month to date cooling degree days 3  
Year to date cooling degree days 2759  
Growing Degree Days 19 (Base 50)    
Moisture  
Dew Point 45 °F    
Average Humidity 47    
Maximum Humidity 71    
Minimum Humidity 21    
Precipitation  
Precipitation 0.00 in 0.11 in 1.41 in (1984)
Month to date precipitation 0.11  
Year to date precipitation 29.23  
Snow  
Snow 0.00 in 0.00 in 0.00 in ()
Month to date snowfall 0.0  
Since 1 July snowfall 0.0  
Since 1 September snowfall 0.0  
Snow Depth -    
Sea Level Pressure  
Sea Level Pressure 30.00 in    
Wind  
Wind Speed 3 mph (South)    
Max Wind Speed 12 mph    
Max Gust Speed 16 mph    
Visibility 10 miles    
Events      
T = Trace of Precipitation, MM = Missing Value Source: NWS Daily Summary

Daily Weather History Graph

Daily Weather History Graph

Search for Another Location

Airport:

Trip Planner

Search our weather history database for the weather conditions in past years. The results will help you decide how hot, cold, wet, or windy it might be!

Date:

Astronomy

Nov. 01, 2012 Rise Set
Actual Time 7:45 AM CDT 6:37 PM CDT
Civil Twilight 7:20 AM CDT 7:03 PM CDT
Nautical Twilight 6:51 AM CDT 7:32 PM CDT
Astronomical Twilight 6:22 AM CDT 8:00 PM CDT
Moon 8:43 PM CDT (11/1) 10:11 AM CDT (11/1)
Length of Visible Light 11h 42m
Length of Day
10h 52m
Waning Gibbous, 93% of the Moon is Illuminated
Nov 1
Waning Gibbous
Nov 6
Last Quarter
Nov 13
New
Nov 20
First Quarter
Nov 28
Full

Hourly Weather History & Observations

Time (CDT) Temp. Dew Point Humidity Pressure Visibility Wind Dir Wind Speed Gust Speed Precip Events Conditions
12:35 AM 59.0 °F 41.0 °F 51% 30.03 in 10.0 mi Calm Calm - N/A   Clear
1:15 AM 55.4 °F 41.0 °F 58% 30.03 in 10.0 mi Calm Calm - N/A   Clear
1:35 AM 57.2 °F 42.8 °F 59% 30.03 in 10.0 mi Calm Calm - N/A   Clear
1:55 AM 53.6 °F 37.4 °F 54% 30.03 in 10.0 mi Calm Calm - N/A   Clear
2:15 AM 51.8 °F 41.0 °F 67% 30.02 in 10.0 mi Calm Calm - N/A   Clear
2:35 AM 51.8 °F 41.0 °F 67% 30.02 in 10.0 mi SE 3.5 mph - N/A   Clear
2:55 AM 53.6 °F 41.0 °F 62% 30.02 in 10.0 mi SSE 3.5 mph - N/A   Clear
3:15 AM 51.8 °F 41.0 °F 67% 30.02 in 10.0 mi SE 3.5 mph - N/A   Clear
3:35 AM 53.6 °F 41.0 °F 62% 30.01 in 10.0 mi Calm Calm - N/A   Clear
3:55 AM 53.6 °F 41.0 °F 62% 30.01 in 10.0 mi Calm Calm - N/A   Clear
4:15 AM 53.6 °F 41.0 °F 62% 30.01 in 10.0 mi Calm Calm - N/A   Clear
4:35 AM 53.6 °F 41.0 °F 62% 30.00 in 10.0 mi Calm Calm - N/A   Clear
4:55 AM 53.6 °F 41.0 °F 62% 30.00 in 10.0 mi Calm Calm - N/A   Clear
5:15 AM 51.8 °F 41.0 °F 67% 30.00 in 10.0 mi Calm Calm - N/A   Clear
5:35 AM 51.8 °F 41.0 °F 67% 30.00 in 10.0 mi Calm Calm - N/A   Clear
5:55 AM 53.6 °F 42.8 °F 67% 30.01 in 10.0 mi Calm Calm - N/A   Clear
6:15 AM 51.8 °F 39.2 °F 62% 30.01 in 10.0 mi Calm Calm - N/A   Clear
6:55 AM 51.8 °F 41.0 °F 67% 30.01 in 10.0 mi Calm Calm - N/A   Clear
7:35 AM 51.8 °F 41.0 °F 67% 30.02 in 10.0 mi Calm Calm - N/A   Clear
7:55 AM 51.8 °F 41.0 °F 67% 30.02 in 10.0 mi Calm Calm - N/A   Clear
8:15 AM 51.8 °F 41.0 °F 67% 30.03 in 10.0 mi Calm Calm - N/A   Clear
8:35 AM 51.8 °F 42.8 °F 71% 30.03 in 10.0 mi Calm Calm - N/A   Clear
8:55 AM 55.4 °F 44.6 °F 67% 30.04 in 10.0 mi Calm Calm - N/A   Clear
9:15 AM 59.0 °F 46.4 °F 63% 30.04 in 10.0 mi SSE 3.5 mph - N/A   Clear
9:35 AM 62.6 °F 48.2 °F 59% 30.05 in 10.0 mi South 3.5 mph - N/A   Clear
9:55 AM 64.4 °F 46.4 °F 52% 30.05 in 10.0 mi SSW 4.6 mph - N/A   Clear
10:15 AM 68.0 °F 48.2 °F 49% 30.06 in 10.0 mi WSW 3.5 mph - N/A   Clear
10:35 AM 69.8 °F 48.2 °F 46% 30.06 in 10.0 mi WSW 4.6 mph - N/A   Clear
11:15 AM 77.0 °F 50.0 °F 39% 30.06 in 10.0 mi West 8.1 mph - N/A   Clear
11:35 AM 78.8 °F 51.8 °F 39% 30.06 in 10.0 mi West 8.1 mph - N/A   Clear
11:55 AM 80.6 °F 51.8 °F 37% 30.05 in 10.0 mi WNW 10.4 mph - N/A   Clear
12:35 PM 82.4 °F 50.0 °F 32% 30.04 in 10.0 mi WNW 9.2 mph - N/A   Clear
1:15 PM 82.4 °F 50.0 °F 32% 30.02 in 10.0 mi WSW 5.8 mph - N/A   Clear
1:35 PM 84.2 °F 48.2 °F 29% 30.01 in 10.0 mi WSW 8.1 mph - N/A   Clear
1:55 PM 86.0 °F 46.4 °F 25% 29.99 in 10.0 mi SSW 3.5 mph - N/A   Clear
2:15 PM 86.0 °F 46.4 °F 25% 29.98 in 10.0 mi SW 4.6 mph - N/A   Clear
2:35 PM 87.8 °F 44.6 °F 22% 29.97 in 10.0 mi WSW 5.8 mph - N/A   Clear
3:15 PM 87.8 °F 44.6 °F 22% 29.95 in 10.0 mi SSW 8.1 mph - N/A   Clear
3:35 PM 87.8 °F 44.6 °F 22% 29.95 in 10.0 mi South 9.2 mph - N/A   Clear
3:55 PM 87.8 °F 44.6 °F 22% 29.95 in 10.0 mi SW 8.1 mph 16.1 mph N/A   Clear
4:15 PM 87.8 °F 44.6 °F 22% 29.95 in 10.0 mi South 5.8 mph - N/A   Clear
4:35 PM 87.8 °F 44.6 °F 22% 29.94 in 10.0 mi SW 8.1 mph - N/A   Clear
4:55 PM 87.8 °F 42.8 °F 21% 29.94 in 10.0 mi WSW 6.9 mph - N/A   Clear
5:15 PM 87.8 °F 42.8 °F 21% 29.94 in 10.0 mi South 8.1 mph - N/A   Clear
5:35 PM 86.0 °F 42.8 °F 22% 29.94 in 10.0 mi South 10.4 mph - N/A   Clear
5:55 PM 86.0 °F 42.8 °F 22% 29.94 in 10.0 mi South 11.5 mph - N/A   Clear
6:15 PM 82.4 °F 42.8 °F 25% 29.94 in 10.0 mi South 8.1 mph - N/A   Clear
6:35 PM 80.6 °F 42.8 °F 26% 29.94 in 10.0 mi South 6.9 mph - N/A   Clear
6:55 PM 77.0 °F 41.0 °F 28% 29.95 in 10.0 mi SSE 5.8 mph - N/A   Clear
7:35 PM 73.4 °F 42.8 °F 33% 29.95 in 10.0 mi SSE 6.9 mph - N/A   Clear
7:55 PM 73.4 °F 42.8 °F 33% 29.96 in 10.0 mi SSE 9.2 mph - N/A   Clear
8:15 PM 75.2 °F 46.4 °F 36% 29.96 in 10.0 mi SSE 10.4 mph - N/A   Clear
8:35 PM 75.2 °F 50.0 °F 41% 29.96 in 10.0 mi SSE 10.4 mph - N/A   Clear
8:55 PM 73.4 °F 50.0 °F 44% 29.96 in 10.0 mi SSE 10.4 mph - N/A   Clear
9:15 PM 73.4 °F 50.0 °F 44% 29.97 in 10.0 mi South 8.1 mph - N/A   Clear
9:35 PM 71.6 °F 50.0 °F 46% 29.97 in 10.0 mi South 9.2 mph - N/A   Clear
9:55 PM 71.6 °F 50.0 °F 46% 29.98 in 10.0 mi South 9.2 mph - N/A   Clear
10:15 PM 69.8 °F 50.0 °F 49% 29.98 in 10.0 mi South 8.1 mph - N/A   Clear
10:35 PM 68.0 °F 50.0 °F 52% 29.98 in 10.0 mi South 5.8 mph - N/A   Clear
10:55 PM 68.0 °F 50.0 °F 52% 29.98 in 10.0 mi South 5.8 mph - N/A   Clear
11:15 PM 66.2 °F 50.0 °F 56% 29.98 in 10.0 mi South 3.5 mph - N/A   Clear
11:35 PM 66.2 °F 50.0 °F 56% 29.98 in 10.0 mi South 4.6 mph - N/A   Clear
11:55 PM 66.2 °F 50.0 °F 56% 29.98 in 10.0 mi South 5.8 mph - N/A   Clear